This is the latest recevied weather packets stored in our database for station/object 4S6DRJ-13. If no packets are shown the sender has not sent any weather packets the latest 10 day(s).
| Time | Temp. | Humidity | Pressure | Rain* | Wind** | Luminosity | Snow |
|---|---|---|---|---|---|---|---|
| 1787924779 | 28.33° C | 84% | 1009.1 hPa | 0 mm | 1.79 m/s, 206° | 0 W/m² | - |
| 1787924718 | 28.33° C | 84% | 1009.1 hPa | 0 mm | 0.89 m/s, 263° | 0 W/m² | - |
| 1787924657 | 28.33° C | 84% | 1009.2 hPa | 0 mm | 1.34 m/s, 231° | 0 W/m² | - |
| 1787924596 | 28.33° C | 84% | 1009 hPa | 0 mm | 0.45 m/s, 213° | 0 W/m² | - |
| 1787924535 | 28.33° C | 84% | 1009 hPa | 0 mm | 1.34 m/s, 128° | 0 W/m² | - |
| 1787924474 | 28.33° C | 84% | 1009.2 hPa | 0 mm | 0.89 m/s, 205° | 0 W/m² | - |
| 1787924413 | 28.33° C | 83% | 1009 hPa | 0 mm | 2.68 m/s, 225° | 0 W/m² | - |
| 1787924352 | 28.33° C | 84% | 1009 hPa | 0 mm | 1.79 m/s, 164° | 0 W/m² | - |
| 1787924291 | 28.33° C | 84% | 1009 hPa | 0 mm | 0.89 m/s, 223° | 0 W/m² | - |
| 1787924230 | 28.33° C | 84% | 1009.2 hPa | 0 mm | 0.45 m/s, 188° | 0 W/m² | - |
| 1787924169 | 28.33° C | 84% | 1009 hPa | 0 mm | 1.79 m/s, 125° | 0 W/m² | - |
| 1787924108 | 28.33° C | 84% | 1009.1 hPa | 0 mm | 0.89 m/s, 302° | 0 W/m² | - |
| 1787924047 | 28.33° C | 84% | 1009.3 hPa | 0 mm | 0.89 m/s, 313° | 0 W/m² | - |
| 1787923985 | 28.33° C | 84% | 1009 hPa | 0 mm | 1.34 m/s, 165° | 0 W/m² | - |
| 1787923924 | 28.33° C | 84% | 1009 hPa | 0 mm | 0.89 m/s, 210° | 0 W/m² | - |
| 1787923863 | 28.33° C | 84% | 1009 hPa | 0 mm | 1.79 m/s, 82° | 0 W/m² | - |
| 1787923802 | 28.33° C | 83% | 1009.1 hPa | 0 mm | 1.79 m/s, 268° | 0 W/m² | - |
| 1787923742 | 28.33° C | 84% | 1009.1 hPa | 0 mm | 0 m/s | 0 W/m² | - |
| 1787923681 | 28.33° C | 83% | 1009.1 hPa | 0 mm | 0.45 m/s, 42° | 0 W/m² | - |
| 1787923619 | 28.33° C | 83% | 1009 hPa | 0 mm | 0.45 m/s, 274° | 0 W/m² | - |
| 1787923566 | 28.33° C | 83% | 1008.9 hPa | 0 mm | 0.89 m/s, 274° | 0 W/m² | - |
| 1787923497 | 28.33° C | 83% | 1009 hPa | 0 mm | 1.34 m/s, 213° | 0 W/m² | - |
| 1787923436 | 28.33° C | 83% | 1009 hPa | 0 mm | 2.24 m/s, 210° | 0 W/m² | - |
| 1787923375 | 28.33° C | 83% | 1009.1 hPa | 0 mm | 1.79 m/s, 150° | 0 W/m² | - |
| 1787923314 | 28.33° C | 83% | 1009 hPa | 0 mm | 0.89 m/s, 309° | 0 W/m² | - |
* Rain latest hour (hover to see other rain measurements)
** Current wind speed in m/s (hover to see current wind gust speed)